Time,TemperatureF,DewpointF,PressureIn,WindDirection,WindDirectionDegrees,WindSpeedMPH,WindSpeedGustMPH,Humidity,HourlyPrecipIn,Conditions,Clouds,dailyrainin,SoftwareType,DateUTC
2013-02-03 00:00:00,25.5,12.0,30.06,NNW,339,1.0,4.0,56,0.00,,---,0.00,VWS V14.01,2013-02-03 05:00:00,
2013-02-03 00:05:00,25.4,11.9,30.06,North,358,0.0,7.0,56,0.00,,---,0.00,VWS V14.01,2013-02-03 05:05:00,
2013-02-03 00:10:00,25.4,11.9,30.06,West,274,0.0,4.0,56,0.00,,---,0.00,VWS V14.01,2013-02-03 05:10:00,
2013-02-03 00:15:00,25.4,11.9,30.06,NNW,328,2.0,7.0,56,0.00,,---,0.00,VWS V14.01,2013-02-03 05:15:00,
2013-02-03 00:20:00,25.3,12.2,30.06,West,277,0.0,3.0,57,0.00,,---,0.00,VWS V14.01,2013-02-03 05:20:00,
2013-02-03 00:25:00,25.3,12.2,30.06,West,273,0.0,5.0,57,0.00,,---,0.00,VWS V14.01,2013-02-03 05:25:00,
2013-02-03 00:30:00,25.2,12.1,30.06,NW,310,2.0,6.0,57,0.00,,---,0.00,VWS V14.01,2013-02-03 05:30:00,
2013-02-03 00:34:00,25.2,12.5,30.06,NE,35,0.0,7.0,58,0.00,,---,0.00,VWS V14.01,2013-02-03 05:34:00,
2013-02-03 00:35:00,25.2,12.5,30.06,NE,35,0.0,7.0,58,0.00,,---,0.00,VWS V14.01,2013-02-03 05:35:00,
2013-02-03 00:40:00,25.1,12.4,30.06,SSW,206,3.0,4.0,58,0.00,,---,0.00,VWS V14.01,2013-02-03 05:40:00,
2013-02-03 00:45:00,25.1,12.8,30.06,NNW,336,3.0,6.0,59,0.00,,---,0.00,VWS V14.01,2013-02-03 05:45:00,
2013-02-03 00:49:00,25.0,12.7,30.05,North,4,2.0,4.0,59,0.00,,---,0.00,VWS V14.01,2013-02-03 05:49:00,
2013-02-03 00:50:00,25.0,12.7,30.05,North,4,2.0,4.0,59,0.00,,---,0.00,VWS V14.01,2013-02-03 05:50:00,
2013-02-03 00:55:00,24.9,13.0,30.05,North,349,1.0,6.0,60,0.00,,---,0.00,VWS V14.01,2013-02-03 05:55:00,
2013-02-03 01:00:00,24.8,13.3,30.05,NNW,328,5.0,6.0,61,0.00,,---,0.00,VWS V14.01,2013-02-03 06:00:00,
2013-02-03 01:04:00,24.7,13.6,30.05,North,350,2.0,9.0,62,0.00,,---,0.00,VWS V14.01,2013-02-03 06:04:00,
2013-02-03 01:05:00,24.7,13.6,30.05,North,350,2.0,9.0,62,0.00,,---,0.00,VWS V14.01,2013-02-03 06:05:00,
2013-02-03 01:10:00,24.6,13.8,30.05,North,9,3.0,5.0,63,0.00,,---,0.00,VWS V14.01,2013-02-03 06:10:00,
2013-02-03 01:15:00,24.5,13.7,30.05,North,7,0.0,4.0,63,0.00,,---,0.00,VWS V14.01,2013-02-03 06:15:00,
2013-02-03 01:20:00,24.4,14.0,30.05,North,356,0.0,4.0,64,0.00,,---,0.00,VWS V14.01,2013-02-03 06:20:00,
2013-02-03 01:25:00,24.3,14.6,30.05,North,356,4.0,5.0,66,0.00,,---,0.00,VWS V14.01,2013-02-03 06:25:00,
2013-02-03 01:30:00,24.1,15.1,30.05,SW,219,1.0,4.0,68,0.00,,---,0.00,VWS V14.01,2013-02-03 06:30:00,
2013-02-03 01:35:00,24.0,15.3,30.05,NNW,338,0.0,4.0,69,0.00,,---,0.00,VWS V14.01,2013-02-03 06:35:00,
2013-02-03 01:40:00,23.8,15.5,30.05,North,350,1.0,5.0,70,0.00,,---,0.00,VWS V14.01,2013-02-03 06:40:00,
2013-02-03 01:45:00,23.7,15.7,30.05,WSW,239,1.0,3.0,71,0.00,,---,0.00,VWS V14.01,2013-02-03 06:45:00,
2013-02-03 01:50:00,23.6,15.9,30.05,West,281,0.0,4.0,72,0.00,,---,0.00,VWS V14.01,2013-02-03 06:50:00,
2013-02-03 01:55:00,23.5,16.1,30.04,West,279,0.0,3.0,73,0.00,,---,0.00,VWS V14.01,2013-02-03 06:55:00,
2013-02-03 02:00:00,23.4,16.4,30.04,North,356,2.0,4.0,74,0.00,,---,0.00,VWS V14.01,2013-02-03 07:00:00,
2013-02-03 02:05:00,23.3,16.6,30.04,NW,306,1.0,4.0,75,0.00,,---,0.00,VWS V14.01,2013-02-03 07:05:00,
2013-02-03 02:10:00,23.2,16.8,30.04,North,360,2.0,4.0,76,0.00,,---,0.00,VWS V14.01,2013-02-03 07:10:00,
2013-02-03 02:15:00,23.1,16.7,30.04,NNW,333,2.0,4.0,76,0.00,,---,0.00,VWS V14.01,2013-02-03 07:15:00,
2013-02-03 02:20:00,23.0,16.9,30.04,NNW,333,0.0,2.0,77,0.00,,---,0.00,VWS V14.01,2013-02-03 07:20:00,
2013-02-03 02:25:00,23.0,17.2,30.03,NNW,339,0.0,2.0,78,0.00,,---,0.00,VWS V14.01,2013-02-03 07:25:00,
2013-02-03 02:30:00,22.9,17.1,30.03,NNW,339,0.0,3.0,78,0.00,,---,0.00,VWS V14.01,2013-02-03 07:30:00,
2013-02-03 02:35:00,22.8,17.3,30.02,NW,319,0.0,4.0,79,0.00,,---,0.00,VWS V14.01,2013-02-03 07:35:00,
2013-02-03 02:40:00,22.7,17.5,30.02,NW,318,0.0,1.0,80,0.00,,---,0.00,VWS V14.01,2013-02-03 07:40:00,
2013-02-03 02:45:00,22.7,17.5,30.02,NW,318,0.0,0.0,80,0.00,,---,0.00,VWS V14.01,2013-02-03 07:45:00,
2013-02-03 02:50:00,22.7,17.5,30.01,NW,319,1.0,2.0,80,0.00,,---,0.00,VWS V14.01,2013-02-03 07:50:00,
2013-02-03 02:55:00,22.6,17.4,30.01,NW,318,1.0,2.0,80,0.00,,---,0.00,VWS V14.01,2013-02-03 07:55:00,
2013-02-03 03:00:00,22.6,17.7,30.01,NNE,23,1.0,3.0,81,0.00,,---,0.00,VWS V14.01,2013-02-03 08:00:00,
2013-02-03 03:05:00,22.6,17.7,30.00,ENE,58,0.0,4.0,81,0.00,,---,0.00,VWS V14.01,2013-02-03 08:05:00,
2013-02-03 03:10:00,22.5,17.6,30.00,NNE,23,0.0,5.0,81,0.00,,---,0.00,VWS V14.01,2013-02-03 08:10:00,
2013-02-03 03:15:00,22.5,17.9,30.00,NNW,332,1.0,4.0,82,0.00,,---,0.00,VWS V14.01,2013-02-03 08:15:00,
2013-02-03 03:20:00,22.5,17.6,30.00,NW,321,0.0,4.0,81,0.00,,---,0.00,VWS V14.01,2013-02-03 08:20:00,
2013-02-03 03:25:00,22.5,17.9,30.00,NW,321,0.0,1.0,82,0.00,,---,0.00,VWS V14.01,2013-02-03 08:25:00,
2013-02-03 03:30:00,22.5,17.9,30.00,NW,321,0.0,2.0,82,0.00,,---,0.00,VWS V14.01,2013-02-03 08:30:00,
2013-02-03 03:35:00,22.4,17.5,30.00,WNW,302,1.0,5.0,81,0.00,,---,0.00,VWS V14.01,2013-02-03 08:35:00,
2013-02-03 03:40:00,22.5,17.6,30.00,WNW,302,0.0,1.0,81,0.00,,---,0.00,VWS V14.01,2013-02-03 08:40:00,
2013-02-03 03:45:00,22.4,17.5,30.00,WNW,302,0.0,3.0,81,0.00,,---,0.00,VWS V14.01,2013-02-03 08:45:00,
2013-02-03 03:50:00,22.4,17.5,30.00,WNW,302,0.0,1.0,81,0.00,,---,0.00,VWS V14.01,2013-02-03 08:50:00,
2013-02-03 03:55:00,22.4,17.5,30.00,WNW,302,0.0,3.0,81,0.00,,---,0.00,VWS V14.01,2013-02-03 08:55:00,
2013-02-03 04:00:00,22.4,17.8,30.00,NNE,23,0.0,2.0,82,0.00,,---,0.00,VWS V14.01,2013-02-03 09:00:00,
2013-02-03 04:05:00,22.4,17.8,30.00,NNW,331,1.0,5.0,82,0.00,,---,0.00,VWS V14.01,2013-02-03 09:05:00,
2013-02-03 04:10:00,22.3,17.6,30.00,NW,315,0.0,2.0,82,0.00,,---,0.00,VWS V14.01,2013-02-03 09:10:00,
2013-02-03 04:15:00,22.3,17.9,30.00,NW,315,0.0,1.0,83,0.00,,---,0.00,VWS V14.01,2013-02-03 09:15:00,
2013-02-03 04:20:00,22.3,17.9,30.00,NNE,30,1.0,3.0,83,0.00,,---,0.00,VWS V14.01,2013-02-03 09:20:00,
2013-02-03 04:25:00,22.2,17.8,30.00,NNE,30,0.0,2.0,83,0.00,,---,0.00,VWS V14.01,2013-02-03 09:25:00,
2013-02-03 04:30:00,22.2,18.1,30.00,NNE,30,0.0,1.0,84,0.00,,---,0.00,VWS V14.01,2013-02-03 09:30:00,
2013-02-03 04:35:00,22.2,18.1,30.00,NNE,30,0.0,1.0,84,0.00,,---,0.00,VWS V14.01,2013-02-03 09:35:00,
2013-02-03 04:40:00,22.1,18.0,30.00,NNE,30,0.0,1.0,84,0.00,,---,0.00,VWS V14.01,2013-02-03 09:40:00,
2013-02-03 04:45:00,22.1,18.3,30.00,NNE,30,0.0,0.0,85,0.00,,---,0.00,VWS V14.01,2013-02-03 09:45:00,
2013-02-03 04:50:00,22.1,18.0,30.00,NNE,30,0.0,1.0,84,0.00,,---,0.00,VWS V14.01,2013-02-03 09:50:00,
2013-02-03 04:55:00,22.1,18.3,30.00,NNE,30,0.0,0.0,85,0.00,,---,0.00,VWS V14.01,2013-02-03 09:55:00,
2013-02-03 05:00:00,22.1,18.3,30.00,NNE,30,0.0,0.0,85,0.00,,---,0.00,VWS V14.01,2013-02-03 10:00:00,
2013-02-03 05:05:00,22.1,18.3,30.00,NNE,30,0.0,1.0,85,0.00,,---,0.00,VWS V14.01,2013-02-03 10:05:00,
2013-02-03 05:10:00,22.1,18.3,30.00,NNE,30,0.0,1.0,85,0.00,,---,0.00,VWS V14.01,2013-02-03 10:10:00,
2013-02-03 05:15:00,22.0,18.2,30.00,NNE,30,0.0,0.0,85,0.00,,---,0.00,VWS V14.01,2013-02-03 10:15:00,
2013-02-03 05:20:00,22.0,18.2,30.00,NNE,30,0.0,1.0,85,0.00,,---,0.00,VWS V14.01,2013-02-03 10:20:00,
2013-02-03 05:25:00,21.9,18.4,30.00,NNE,30,0.0,1.0,86,0.00,,---,0.00,VWS V14.01,2013-02-03 10:25:00,
2013-02-03 05:30:00,21.9,18.4,30.00,NNE,30,0.0,1.0,86,0.00,,---,0.00,VWS V14.01,2013-02-03 10:30:00,
2013-02-03 05:35:00,21.8,18.3,29.99,NNE,30,0.0,0.0,86,0.00,,---,0.00,VWS V14.01,2013-02-03 10:35:00,
2013-02-03 05:40:00,21.8,18.5,29.99,NNE,30,0.0,1.0,87,0.00,,---,0.00,VWS V14.01,2013-02-03 10:40:00,
2013-02-03 05:45:00,21.9,18.6,29.99,NNE,30,0.0,1.0,87,0.00,,---,0.00,VWS V14.01,2013-02-03 10:45:00,
2013-02-03 05:50:00,21.9,18.6,29.99,NNE,30,0.0,0.0,87,0.00,,---,0.00,VWS V14.01,2013-02-03 10:50:00,
2013-02-03 05:55:00,21.8,18.5,29.99,NNE,30,0.0,1.0,87,0.00,,---,0.00,VWS V14.01,2013-02-03 10:55:00,
2013-02-03 06:00:00,21.8,18.5,29.99,NNE,30,0.0,0.0,87,0.00,,---,0.00,VWS V14.01,2013-02-03 11:00:00,
2013-02-03 06:05:00,21.8,18.5,29.99,NNE,30,0.0,0.0,87,0.00,,---,0.00,VWS V14.01,2013-02-03 11:05:00,
2013-02-03 06:10:00,21.8,18.5,29.98,NNE,30,0.0,1.0,87,0.00,,---,0.00,VWS V14.01,2013-02-03 11:10:00,
2013-02-03 06:15:00,21.8,18.5,29.98,NNE,30,0.0,1.0,87,0.00,,---,0.00,VWS V14.01,2013-02-03 11:15:00,
2013-02-03 06:20:00,21.7,18.4,29.98,NNE,30,0.0,1.0,87,0.00,,---,0.00,VWS V14.01,2013-02-03 11:20:00,
2013-02-03 06:25:00,21.7,18.7,29.98,NNE,30,0.0,0.0,88,0.00,,---,0.00,VWS V14.01,2013-02-03 11:25:00,
2013-02-03 06:30:00,21.6,18.6,29.98,NNE,30,0.0,0.0,88,0.00,,---,0.00,VWS V14.01,2013-02-03 11:30:00,
2013-02-03 06:35:00,21.4,18.4,29.98,NNE,30,0.0,1.0,88,0.00,,---,0.00,VWS V14.01,2013-02-03 11:35:00,
2013-02-03 06:40:00,21.3,18.3,29.97,NNE,30,0.0,0.0,88,0.00,,---,0.00,VWS V14.01,2013-02-03 11:40:00,
2013-02-03 06:45:00,21.1,18.1,29.97,NNE,30,0.0,0.0,88,0.00,,---,0.00,VWS V14.01,2013-02-03 11:45:00,
2013-02-03 06:50:00,21.0,18.0,29.97,NNE,30,0.0,0.0,88,0.00,,---,0.00,VWS V14.01,2013-02-03 11:50:00,
2013-02-03 06:55:00,20.8,17.8,29.97,NNE,30,0.0,0.0,88,0.00,,---,0.00,VWS V14.01,2013-02-03 11:55:00,
2013-02-03 07:00:00,20.6,17.9,29.97,NNE,30,0.0,1.0,89,0.00,,---,0.00,VWS V14.01,2013-02-03 12:00:00,
2013-02-03 07:05:00,20.6,17.9,29.97,North,356,0.0,2.0,89,0.00,,---,0.00,VWS V14.01,2013-02-03 12:05:00,
2013-02-03 07:10:00,20.5,17.8,29.97,North,356,0.0,1.0,89,0.00,,---,0.00,VWS V14.01,2013-02-03 12:10:00,
2013-02-03 07:15:00,20.4,17.7,29.97,North,356,2.0,2.0,89,0.00,,---,0.00,VWS V14.01,2013-02-03 12:15:00,
2013-02-03 07:20:00,20.3,17.8,29.97,North,356,0.0,2.0,90,0.00,,---,0.00,VWS V14.01,2013-02-03 12:20:00,
2013-02-03 07:25:00,20.3,17.8,29.97,North,356,0.0,0.0,90,0.00,,---,0.00,VWS V14.01,2013-02-03 12:25:00,
2013-02-03 07:30:00,20.3,17.8,29.97,North,356,0.0,1.0,90,0.00,,---,0.00,VWS V14.01,2013-02-03 12:30:00,
2013-02-03 07:35:00,20.4,17.9,29.97,North,356,0.0,1.0,90,0.00,,---,0.00,VWS V14.01,2013-02-03 12:35:00,
2013-02-03 07:40:00,20.4,17.9,29.97,North,356,0.0,1.0,90,0.00,,---,0.00,VWS V14.01,2013-02-03 12:40:00,
2013-02-03 07:45:00,20.5,18.0,29.97,North,356,0.0,2.0,90,0.00,,---,0.00,VWS V14.01,2013-02-03 12:45:00,
2013-02-03 07:50:00,20.5,18.0,29.98,North,356,0.0,1.0,90,0.00,,---,0.00,VWS V14.01,2013-02-03 12:50:00,
2013-02-03 07:55:00,20.6,18.1,29.98,North,356,0.0,1.0,90,0.00,,---,0.00,VWS V14.01,2013-02-03 12:55:00,
2013-02-03 08:00:00,20.7,18.2,29.98,North,356,0.0,0.0,90,0.00,,---,0.00,VWS V14.01,2013-02-03 13:00:00,
2013-02-03 08:05:00,20.8,18.3,29.98,North,356,0.0,1.0,90,0.00,,---,0.00,VWS V14.01,2013-02-03 13:05:00,
2013-02-03 08:10:00,21.0,18.5,29.98,North,356,0.0,1.0,90,0.00,,---,0.00,VWS V14.01,2013-02-03 13:10:00,
2013-02-03 08:15:00,21.1,18.6,29.98,North,356,0.0,1.0,90,0.00,,---,0.00,VWS V14.01,2013-02-03 13:15:00,
2013-02-03 08:20:00,21.3,18.8,29.98,North,356,0.0,3.0,90,0.00,,---,0.00,VWS V14.01,2013-02-03 13:20:00,
2013-02-03 08:25:00,21.4,18.9,29.99,North,356,1.0,2.0,90,0.00,,---,0.00,VWS V14.01,2013-02-03 13:25:00,
2013-02-03 08:30:00,21.6,19.1,29.99,North,359,2.0,2.0,90,0.00,,---,0.00,VWS V14.01,2013-02-03 13:30:00,
2013-02-03 08:35:00,21.6,18.9,29.98,North,359,2.0,3.0,89,0.00,,---,0.00,VWS V14.01,2013-02-03 13:35:00,
2013-02-03 08:40:00,21.7,19.0,29.98,North,8,0.0,3.0,89,0.00,,---,0.00,VWS V14.01,2013-02-03 13:40:00,
2013-02-03 08:45:00,21.8,19.1,29.98,North,8,2.0,2.0,89,0.00,,---,0.00,VWS V14.01,2013-02-03 13:45:00,
2013-02-03 08:50:00,22.0,19.3,29.98,NNE,15,0.0,3.0,89,0.00,,---,0.00,VWS V14.01,2013-02-03 13:50:00,
2013-02-03 08:55:00,22.0,19.0,29.97,North,6,1.0,4.0,88,0.00,,---,0.00,VWS V14.01,2013-02-03 13:55:00,
2013-02-03 09:00:00,22.1,19.1,29.97,NNE,17,2.0,3.0,88,0.00,,---,0.00,VWS V14.01,2013-02-03 14:00:00,
2013-02-03 09:05:00,22.1,19.1,29.97,NNE,19,1.0,5.0,88,0.00,,---,0.00,VWS V14.01,2013-02-03 14:05:00,
2013-02-03 09:10:00,22.3,19.3,29.97,NNE,23,3.0,3.0,88,0.00,,---,0.00,VWS V14.01,2013-02-03 14:10:00,
2013-02-03 09:15:00,22.4,19.1,29.97,NNW,347,0.0,3.0,87,0.00,,---,0.00,VWS V14.01,2013-02-03 14:15:00,
2013-02-03 09:20:00,22.5,19.0,29.97,NW,306,0.0,5.0,86,0.00,,---,0.00,VWS V14.01,2013-02-03 14:20:00,
2013-02-03 09:25:00,22.6,18.8,29.96,ENE,57,3.0,4.0,85,0.00,,---,0.00,VWS V14.01,2013-02-03 14:25:00,
2013-02-03 09:30:00,22.7,18.9,29.96,North,356,2.0,4.0,85,0.00,,---,0.00,VWS V14.01,2013-02-03 14:30:00,
2013-02-03 09:35:00,22.8,18.7,29.96,NW,322,0.0,5.0,84,0.00,,---,0.00,VWS V14.01,2013-02-03 14:35:00,
2013-02-03 09:40:00,23.1,19.0,29.96,NNE,30,2.0,4.0,84,0.00,,---,0.00,VWS V14.01,2013-02-03 14:40:00,
2013-02-03 09:45:00,23.3,19.2,29.96,NNW,335,0.0,4.0,84,0.00,,---,0.00,VWS V14.01,2013-02-03 14:45:00,
2013-02-03 09:50:00,23.5,19.1,29.95,NNW,328,0.0,3.0,83,0.00,,---,0.00,VWS V14.01,2013-02-03 14:50:00,
2013-02-03 09:55:00,23.8,19.1,29.95,NNW,329,0.0,2.0,82,0.00,,---,0.00,VWS V14.01,2013-02-03 14:55:00,
2013-02-03 10:00:00,23.8,19.1,29.95,North,358,1.0,4.0,82,0.00,,---,0.00,VWS V14.01,2013-02-03 15:00:00,
2013-02-03 10:05:00,23.9,19.2,29.95,North,2,0.0,3.0,82,0.00,,---,0.00,VWS V14.01,2013-02-03 15:05:00,
2013-02-03 10:10:00,24.0,19.3,29.94,North,360,0.0,3.0,82,0.00,,---,0.00,VWS V14.01,2013-02-03 15:10:00,
2013-02-03 10:15:00,24.1,19.4,29.94,NW,308,0.0,7.0,82,0.00,,---,0.00,VWS V14.01,2013-02-03 15:15:00,
2013-02-03 10:20:00,24.2,19.5,29.94,NNE,21,0.0,4.0,82,0.00,,---,0.00,VWS V14.01,2013-02-03 15:20:00,
2013-02-03 10:25:00,24.3,19.6,29.94,North,8,0.0,5.0,82,0.00,,---,0.00,VWS V14.01,2013-02-03 15:25:00,
2013-02-03 10:30:00,24.4,19.7,29.94,WNW,296,1.0,6.0,82,0.00,,---,0.00,VWS V14.01,2013-02-03 15:30:00,
2013-02-03 10:35:00,24.5,19.8,29.93,NNE,23,2.0,2.0,82,0.00,,---,0.00,VWS V14.01,2013-02-03 15:35:00,
2013-02-03 10:40:00,24.5,19.8,29.93,NNW,343,1.0,3.0,82,0.00,,---,0.00,VWS V14.01,2013-02-03 15:40:00,
2013-02-03 10:45:00,24.6,19.9,29.93,NE,35,0.0,4.0,82,0.00,,---,0.00,VWS V14.01,2013-02-03 15:45:00,
2013-02-03 10:50:00,24.7,19.7,29.92,North,9,0.0,4.0,81,0.00,,---,0.00,VWS V14.01,2013-02-03 15:50:00,
2013-02-03 10:55:00,24.9,20.2,29.93,ENE,59,0.0,3.0,82,0.00,,---,0.00,VWS V14.01,2013-02-03 15:55:00,
2013-02-03 11:00:00,24.9,20.2,29.92,NW,312,2.0,6.0,82,0.00,,---,0.00,VWS V14.01,2013-02-03 16:00:00,
2013-02-03 11:05:00,25.0,20.3,29.92,North,354,3.0,4.0,82,0.00,,---,0.00,VWS V14.01,2013-02-03 16:05:00,
2013-02-03 11:10:00,25.0,20.3,29.92,NNW,337,1.0,6.0,82,0.00,,---,0.00,VWS V14.01,2013-02-03 16:10:00,
2013-02-03 11:15:00,25.1,19.8,29.91,NE,46,1.0,5.0,80,0.00,,---,0.00,VWS V14.01,2013-02-03 16:15:00,
2013-02-03 11:20:00,25.2,20.2,29.91,NNW,346,2.0,3.0,81,0.00,,---,0.00,VWS V14.01,2013-02-03 16:20:00,
2013-02-03 11:25:00,25.2,19.9,29.91,NW,320,2.0,6.0,80,0.00,,---,0.00,VWS V14.01,2013-02-03 16:25:00,
2013-02-03 11:30:00,25.2,19.9,29.90,NNE,13,0.0,3.0,80,0.00,,---,0.00,VWS V14.01,2013-02-03 16:30:00,
2013-02-03 11:35:00,25.2,20.2,29.90,NE,40,0.0,5.0,81,0.00,,---,0.00,VWS V14.01,2013-02-03 16:35:00,
2013-02-03 11:40:00,25.2,19.9,29.90,NNE,21,1.0,4.0,80,0.00,,---,0.00,VWS V14.01,2013-02-03 16:40:00,
2013-02-03 11:45:00,25.2,19.9,29.89,NNW,333,1.0,4.0,80,0.00,,---,0.00,VWS V14.01,2013-02-03 16:45:00,
2013-02-03 11:50:00,25.3,20.3,29.89,NNE,25,3.0,5.0,81,0.00,,---,0.00,VWS V14.01,2013-02-03 16:50:00,
2013-02-03 11:55:00,25.3,20.3,29.88,North,355,3.0,5.0,81,0.00,,---,0.00,VWS V14.01,2013-02-03 16:55:00,
2013-02-03 12:00:00,25.1,19.8,29.88,NE,46,1.0,4.0,80,0.00,,---,0.00,VWS V14.01,2013-02-03 17:00:00,
2013-02-03 12:05:00,25.0,20.0,29.88,NNW,344,1.0,4.0,81,0.00,,---,0.00,VWS V14.01,2013-02-03 17:05:00,
2013-02-03 12:10:00,25.1,20.4,29.87,North,7,1.0,5.0,82,0.00,,---,0.00,VWS V14.01,2013-02-03 17:10:00,
2013-02-03 12:15:00,25.0,20.3,29.87,East,79,1.0,4.0,82,0.00,,---,0.00,VWS V14.01,2013-02-03 17:15:00,
2013-02-03 12:20:00,25.1,20.7,29.86,WNW,295,1.0,6.0,83,0.00,,---,0.00,VWS V14.01,2013-02-03 17:20:00,
2013-02-03 12:25:00,25.1,20.7,29.86,North,358,3.0,5.0,83,0.00,,---,0.00,VWS V14.01,2013-02-03 17:25:00,
2013-02-03 12:30:00,24.9,20.5,29.86,NW,323,0.0,5.0,83,0.00,,---,0.00,VWS V14.01,2013-02-03 17:30:00,
2013-02-03 12:35:00,25.0,20.9,29.85,NNE,18,0.0,4.0,84,0.00,,---,0.00,VWS V14.01,2013-02-03 17:35:00,
2013-02-03 12:40:00,25.0,20.9,29.85,NNE,21,0.0,4.0,84,0.00,,---,0.00,VWS V14.01,2013-02-03 17:40:00,
2013-02-03 12:45:00,24.9,20.5,29.85,East,82,1.0,5.0,83,0.00,,---,0.00,VWS V14.01,2013-02-03 17:45:00,
2013-02-03 12:50:00,24.8,20.4,29.85,NE,54,0.0,3.0,83,0.00,,---,0.00,VWS V14.01,2013-02-03 17:50:00,
2013-02-03 12:55:00,24.8,20.7,29.84,North,1,6.0,7.0,84,0.00,,---,0.00,VWS V14.01,2013-02-03 17:55:00,
2013-02-03 13:00:00,24.7,20.6,29.84,ESE,104,0.0,6.0,84,0.00,,---,0.00,VWS V14.01,2013-02-03 18:00:00,
2013-02-03 13:05:00,24.8,20.4,29.84,North,360,3.0,5.0,83,0.00,,---,0.00,VWS V14.01,2013-02-03 18:05:00,
2013-02-03 13:10:00,24.7,20.3,29.84,North,356,0.0,6.0,83,0.00,,---,0.00,VWS V14.01,2013-02-03 18:10:00,
2013-02-03 13:15:00,24.5,20.1,29.84,NE,40,0.0,7.0,83,0.00,,---,0.00,VWS V14.01,2013-02-03 18:15:00,
2013-02-03 13:20:00,24.5,20.1,29.84,North,10,0.0,4.0,83,0.00,,---,0.00,VWS V14.01,2013-02-03 18:20:00,
2013-02-03 13:25:00,24.7,20.6,29.83,North,8,0.0,3.0,84,0.00,,---,0.00,VWS V14.01,2013-02-03 18:25:00,
2013-02-03 13:30:00,24.8,20.9,29.83,North,8,1.0,1.0,85,0.00,,---,0.00,VWS V14.01,2013-02-03 18:30:00,
2013-02-03 13:35:00,24.9,20.5,29.83,NNW,337,2.0,9.0,83,0.00,,---,0.00,VWS V14.01,2013-02-03 18:35:00,
2013-02-03 13:40:00,24.8,20.7,29.83,NNW,332,2.0,3.0,84,0.00,,---,0.00,VWS V14.01,2013-02-03 18:40:00,
2013-02-03 13:45:00,24.8,20.7,29.83,NW,316,0.0,3.0,84,0.00,,---,0.00,VWS V14.01,2013-02-03 18:45:00,
2013-02-03 13:50:00,24.9,20.8,29.83,West,279,1.0,3.0,84,0.00,,---,0.00,VWS V14.01,2013-02-03 18:50:00,
2013-02-03 13:55:00,24.8,20.7,29.82,West,269,0.0,4.0,84,0.00,,---,0.00,VWS V14.01,2013-02-03 18:55:00,
2013-02-03 14:00:00,24.7,20.8,29.82,NNW,333,2.0,4.0,85,0.00,,---,0.00,VWS V14.01,2013-02-03 19:00:00,
2013-02-03 14:05:00,24.7,20.6,29.82,NNE,23,3.0,3.0,84,0.00,,---,0.00,VWS V14.01,2013-02-03 19:05:00,
2013-02-03 14:10:00,24.7,20.8,29.82,NNW,333,1.0,5.0,85,0.00,,---,0.00,VWS V14.01,2013-02-03 19:10:00,
2013-02-03 14:15:00,24.8,20.9,29.81,NNW,337,2.0,4.0,85,0.00,,---,0.00,VWS V14.01,2013-02-03 19:15:00,
2013-02-03 14:20:00,24.9,21.3,29.81,North,351,0.0,3.0,86,0.00,,---,0.00,VWS V14.01,2013-02-03 19:20:00,
2013-02-03 14:25:00,25.1,21.2,29.81,NNW,334,0.0,6.0,85,0.00,,---,0.00,VWS V14.01,2013-02-03 19:25:00,
2013-02-03 14:30:00,25.1,21.2,29.81,NNE,18,0.0,5.0,85,0.00,,---,0.00,VWS V14.01,2013-02-03 19:30:00,
2013-02-03 14:35:00,25.1,21.0,29.81,NE,52,0.0,7.0,84,0.00,,---,0.00,VWS V14.01,2013-02-03 19:35:00,
2013-02-03 14:40:00,25.2,21.0,29.81,NNE,20,2.0,4.0,84,0.00,,---,0.00,VWS V14.01,2013-02-03 19:40:00,
2013-02-03 14:45:00,25.3,21.1,29.81,NNE,19,1.0,5.0,84,0.00,,---,0.00,VWS V14.01,2013-02-03 19:45:00,
2013-02-03 14:50:00,25.2,21.0,29.81,WNW,284,3.0,4.0,84,0.00,,---,0.00,VWS V14.01,2013-02-03 19:50:00,
2013-02-03 14:55:00,25.2,21.3,29.81,NNE,30,0.0,5.0,85,0.00,,---,0.00,VWS V14.01,2013-02-03 19:55:00,
2013-02-03 15:00:00,25.3,21.4,29.81,NNE,23,3.0,5.0,85,0.00,,---,0.00,VWS V14.01,2013-02-03 20:00:00,
2013-02-03 15:05:00,25.3,21.1,29.81,NNE,19,5.0,5.0,84,0.00,,---,0.00,VWS V14.01,2013-02-03 20:05:00,
2013-02-03 15:10:00,25.2,21.0,29.81,NE,51,0.0,5.0,84,0.00,,---,0.00,VWS V14.01,2013-02-03 20:10:00,
2013-02-03 15:15:00,25.2,21.0,29.81,NNE,21,1.0,2.0,84,0.00,,---,0.00,VWS V14.01,2013-02-03 20:15:00,
2013-02-03 15:20:00,25.3,21.1,29.81,NNE,21,1.0,2.0,84,0.00,,---,0.00,VWS V14.01,2013-02-03 20:20:00,
2013-02-03 15:25:00,25.2,21.0,29.81,ENE,66,1.0,5.0,84,0.00,,---,0.00,VWS V14.01,2013-02-03 20:25:00,
2013-02-03 15:30:00,25.2,21.0,29.81,NNW,344,2.0,4.0,84,0.00,,---,0.00,VWS V14.01,2013-02-03 20:30:00,
2013-02-03 15:35:00,25.1,21.0,29.81,NW,314,0.0,3.0,84,0.00,,---,0.00,VWS V14.01,2013-02-03 20:35:00,
2013-02-03 15:40:00,25.2,23.2,29.80,NNE,13,0.0,3.0,92,0.00,,---,0.00,VWS V14.01,2013-02-03 20:40:00,
2013-02-03 15:45:00,25.2,21.3,29.80,NNE,13,0.0,2.0,85,0.00,,---,0.00,VWS V14.01,2013-02-03 20:45:00,
2013-02-03 15:50:00,25.2,21.3,29.80,ENE,69,2.0,3.0,85,0.00,,---,0.00,VWS V14.01,2013-02-03 20:50:00,
2013-02-03 15:55:00,25.1,21.2,29.80,NNE,26,1.0,3.0,85,0.00,,---,0.00,VWS V14.01,2013-02-03 20:55:00,
2013-02-03 16:00:00,25.1,21.2,29.80,NNE,21,1.0,4.0,85,0.00,,---,0.00,VWS V14.01,2013-02-03 21:00:00,
2013-02-03 16:05:00,25.1,21.2,29.80,NNE,21,0.0,2.0,85,0.00,,---,0.00,VWS V14.01,2013-02-03 21:05:00,
2013-02-03 16:10:00,25.0,21.4,29.80,North,11,1.0,3.0,86,0.00,,---,0.00,VWS V14.01,2013-02-03 21:10:00,
2013-02-03 16:15:00,25.0,21.4,29.79,NNE,30,2.0,4.0,86,0.00,,---,0.00,VWS V14.01,2013-02-03 21:15:00,
2013-02-03 16:20:00,24.9,21.3,29.79,North,358,1.0,3.0,86,0.00,,---,0.00,VWS V14.01,2013-02-03 21:20:00,
2013-02-03 16:25:00,24.9,21.6,29.79,NNE,16,0.0,3.0,87,0.00,,---,0.00,VWS V14.01,2013-02-03 21:25:00,
2013-02-03 16:30:00,24.8,21.5,29.79,NNW,334,0.0,2.0,87,0.00,,---,0.00,VWS V14.01,2013-02-03 21:30:00,
2013-02-03 16:35:00,24.8,21.5,29.79,East,91,0.0,2.0,87,0.00,,---,0.00,VWS V14.01,2013-02-03 21:35:00,
2013-02-03 16:40:00,24.7,21.4,29.78,NNE,23,1.0,4.0,87,0.00,,---,0.00,VWS V14.01,2013-02-03 21:40:00,
2013-02-03 16:45:00,24.7,21.4,29.78,North,358,0.0,4.0,87,0.00,,---,0.00,VWS V14.01,2013-02-03 21:45:00,
2013-02-03 16:50:00,24.6,21.3,29.78,North,357,1.0,1.0,87,0.00,,---,0.00,VWS V14.01,2013-02-03 21:50:00,
2013-02-03 16:55:00,24.6,21.6,29.78,North,357,3.0,3.0,88,0.00,,---,0.00,VWS V14.01,2013-02-03 21:55:00,
2013-02-03 17:00:00,24.6,21.6,29.78,NNW,344,0.0,3.0,88,0.00,,---,0.00,VWS V14.01,2013-02-03 22:00:00,
2013-02-03 17:05:00,24.6,21.6,29.78,NNW,344,0.0,2.0,88,0.00,,---,0.00,VWS V14.01,2013-02-03 22:05:00,
2013-02-03 17:10:00,24.5,21.5,29.78,North,10,2.0,4.0,88,0.00,,---,0.00,VWS V14.01,2013-02-03 22:10:00,
2013-02-03 17:15:00,24.5,21.5,29.78,North,358,2.0,4.0,88,0.00,,---,0.00,VWS V14.01,2013-02-03 22:15:00,
2013-02-03 17:20:00,24.4,21.4,29.77,North,350,1.0,4.0,88,0.00,,---,0.00,VWS V14.01,2013-02-03 22:20:00,
2013-02-03 17:25:00,24.4,21.4,29.77,North,351,2.0,2.0,88,0.00,,---,0.00,VWS V14.01,2013-02-03 22:25:00,
2013-02-03 17:30:00,24.4,21.4,29.77,North,358,1.0,2.0,88,0.00,,---,0.00,VWS V14.01,2013-02-03 22:30:00,
2013-02-03 17:35:00,24.3,21.3,29.77,North,356,0.0,2.0,88,0.00,,---,0.00,VWS V14.01,2013-02-03 22:35:00,
2013-02-03 17:40:00,24.4,21.4,29.77,NNE,16,1.0,3.0,88,0.00,,---,0.00,VWS V14.01,2013-02-03 22:40:00,
2013-02-03 17:45:00,24.3,21.3,29.78,North,8,0.0,3.0,88,0.00,,---,0.00,VWS V14.01,2013-02-03 22:45:00,
2013-02-03 17:50:00,24.3,21.5,29.77,NNE,30,2.0,4.0,89,0.00,,---,0.00,VWS V14.01,2013-02-03 22:50:00,
2013-02-03 17:55:00,24.3,21.5,29.78,North,359,0.0,2.0,89,0.00,,---,0.00,VWS V14.01,2013-02-03 22:55:00,
2013-02-03 18:00:00,24.3,21.5,29.78,North,5,2.0,3.0,89,0.00,,---,0.00,VWS V14.01,2013-02-03 23:00:00,
2013-02-03 18:05:00,24.2,21.4,29.78,NE,44,0.0,3.0,89,0.00,,---,0.00,VWS V14.01,2013-02-03 23:05:00,
2013-02-03 18:10:00,24.2,21.4,29.78,NNE,20,0.0,4.0,89,0.00,,---,0.00,VWS V14.01,2013-02-03 23:10:00,
2013-02-03 18:15:00,24.2,21.4,29.78,NNE,20,0.0,0.0,89,0.00,,---,0.00,VWS V14.01,2013-02-03 23:15:00,
2013-02-03 18:20:00,24.2,21.4,29.78,NNE,20,0.0,3.0,89,0.00,,---,0.00,VWS V14.01,2013-02-03 23:20:00,
2013-02-03 18:25:00,24.2,21.4,29.78,NNE,20,0.0,1.0,89,0.00,,---,0.00,VWS V14.01,2013-02-03 23:25:00,
2013-02-03 18:30:00,24.2,21.7,29.79,NNE,20,0.0,1.0,90,0.00,,---,0.00,VWS V14.01,2013-02-03 23:30:00,
2013-02-03 18:35:00,24.2,21.7,29.79,NNE,20,0.0,0.0,90,0.00,,---,0.00,VWS V14.01,2013-02-03 23:35:00,
2013-02-03 18:40:00,24.2,21.7,29.79,NNE,25,0.0,2.0,90,0.00,,---,0.00,VWS V14.01,2013-02-03 23:40:00,
2013-02-03 18:45:00,24.1,21.3,29.79,NE,54,0.0,2.0,89,0.00,,---,0.00,VWS V14.01,2013-02-03 23:45:00,
2013-02-03 18:50:00,24.1,21.3,29.79,NE,44,0.0,2.0,89,0.00,,---,0.00,VWS V14.01,2013-02-03 23:50:00,
2013-02-03 18:55:00,24.0,21.2,29.79,ENE,74,0.0,2.0,89,0.00,,---,0.00,VWS V14.01,2013-02-03 23:55:00,
2013-02-03 19:00:00,24.0,21.2,29.79,ENE,74,0.0,0.0,89,0.00,,---,0.00,VWS V14.01,2013-02-04 00:00:00,
2013-02-03 19:05:00,24.0,21.2,29.79,ENE,74,0.0,0.0,89,0.00,,---,0.00,VWS V14.01,2013-02-04 00:05:00,
2013-02-03 19:10:00,24.0,21.2,29.79,ENE,74,0.0,0.0,89,0.00,,---,0.00,VWS V14.01,2013-02-04 00:10:00,
2013-02-03 19:15:00,24.0,21.2,29.79,ENE,74,0.0,0.0,89,0.00,,---,0.00,VWS V14.01,2013-02-04 00:15:00,
2013-02-03 19:20:00,23.9,21.1,29.79,NNE,30,0.0,3.0,89,0.00,,---,0.00,VWS V14.01,2013-02-04 00:20:00,
2013-02-03 19:25:00,23.9,21.1,29.79,NNE,30,0.0,2.0,89,0.00,,---,0.00,VWS V14.01,2013-02-04 00:25:00,
2013-02-03 19:30:00,23.8,21.0,29.79,NNE,15,2.0,2.0,89,0.00,,---,0.00,VWS V14.01,2013-02-04 00:30:00,
2013-02-03 19:35:00,23.8,20.8,29.79,NNE,15,0.0,2.0,88,0.00,,---,0.00,VWS V14.01,2013-02-04 00:35:00,
2013-02-03 19:40:00,23.7,20.7,29.79,NNE,17,0.0,1.0,88,0.00,,---,0.00,VWS V14.01,2013-02-04 00:40:00,
2013-02-03 19:45:00,23.7,20.7,29.78,NNE,17,0.0,2.0,88,0.00,,---,0.00,VWS V14.01,2013-02-04 00:45:00,
2013-02-03 19:50:00,23.7,20.7,29.78,NNE,23,0.0,3.0,88,0.00,,---,0.00,VWS V14.01,2013-02-04 00:50:00,
2013-02-03 19:55:00,23.7,20.7,29.78,NNW,332,1.0,3.0,88,0.00,,---,0.00,VWS V14.01,2013-02-04 00:55:00,
2013-02-03 20:00:00,23.7,20.7,29.78,North,352,1.0,3.0,88,0.00,,---,0.00,VWS V14.01,2013-02-04 01:00:00,
2013-02-03 20:05:00,23.7,20.7,29.78,North,352,0.0,2.0,88,0.00,,---,0.00,VWS V14.01,2013-02-04 01:05:00,
2013-02-03 20:10:00,23.7,20.9,29.77,North,352,0.0,1.0,89,0.00,,---,0.00,VWS V14.01,2013-02-04 01:10:00,
2013-02-03 20:15:00,23.7,20.9,29.77,NNE,12,0.0,3.0,89,0.00,,---,0.00,VWS V14.01,2013-02-04 01:15:00,
2013-02-03 20:20:00,23.6,20.8,29.77,North,7,2.0,4.0,89,0.00,,---,0.00,VWS V14.01,2013-02-04 01:20:00,
2013-02-03 20:25:00,23.6,20.8,29.77,NNE,25,0.0,3.0,89,0.00,,---,0.00,VWS V14.01,2013-02-04 01:25:00,
2013-02-03 20:30:00,23.5,20.5,29.77,NNE,14,1.0,2.0,88,0.00,,---,0.00,VWS V14.01,2013-02-04 01:30:00,
2013-02-03 20:35:00,23.5,20.5,29.77,NNE,14,0.0,2.0,88,0.00,,---,0.00,VWS V14.01,2013-02-04 01:35:00,
2013-02-03 20:40:00,23.5,20.5,29.77,NE,40,1.0,3.0,88,0.00,,---,0.00,VWS V14.01,2013-02-04 01:40:00,
2013-02-03 20:45:00,23.4,20.4,29.77,North,11,0.0,4.0,88,0.00,,---,0.00,VWS V14.01,2013-02-04 01:45:00,
2013-02-03 20:50:00,23.4,20.4,29.77,NW,314,0.0,3.0,88,0.00,,---,0.00,VWS V14.01,2013-02-04 01:50:00,
2013-02-03 20:55:00,23.4,20.4,29.77,WNW,300,0.0,3.0,88,0.00,,---,0.00,VWS V14.01,2013-02-04 01:55:00,
2013-02-03 21:00:00,23.4,20.1,29.77,WNW,301,0.0,2.0,87,0.00,,---,0.00,VWS V14.01,2013-02-04 02:00:00,
2013-02-03 21:05:00,23.4,20.1,29.77,NW,324,0.0,3.0,87,0.00,,---,0.00,VWS V14.01,2013-02-04 02:05:00,
2013-02-03 21:10:00,23.4,20.1,29.77,North,1,2.0,3.0,87,0.00,,---,0.00,VWS V14.01,2013-02-04 02:10:00,
2013-02-03 21:15:00,23.4,20.1,29.76,NNW,346,2.0,6.0,87,0.00,,---,0.00,VWS V14.01,2013-02-04 02:15:00,
2013-02-03 21:20:00,23.4,20.1,29.76,NW,312,0.0,5.0,87,0.00,,---,0.00,VWS V14.01,2013-02-04 02:20:00,
2013-02-03 21:25:00,23.4,20.1,29.76,North,359,0.0,4.0,87,0.00,,---,0.00,VWS V14.01,2013-02-04 02:25:00,
2013-02-03 21:30:00,23.4,20.1,29.76,NE,52,1.0,3.0,87,0.00,,---,0.00,VWS V14.01,2013-02-04 02:30:00,
2013-02-03 21:35:00,23.4,20.1,29.75,NNE,17,1.0,4.0,87,0.00,,---,0.00,VWS V14.01,2013-02-04 02:35:00,
2013-02-03 21:40:00,23.4,20.1,29.75,NNE,30,1.0,4.0,87,0.00,,---,0.00,VWS V14.01,2013-02-04 02:40:00,
2013-02-03 21:45:00,23.3,20.0,29.76,NW,314,2.0,5.0,87,0.00,,---,0.00,VWS V14.01,2013-02-04 02:45:00,
2013-02-03 21:50:00,23.4,20.1,29.76,NW,323,0.0,3.0,87,0.00,,---,0.00,VWS V14.01,2013-02-04 02:50:00,
2013-02-03 21:55:00,23.3,20.0,29.75,NW,323,1.0,1.0,87,0.00,,---,0.00,VWS V14.01,2013-02-04 02:55:00,
2013-02-03 22:00:00,23.3,20.0,29.75,NNW,344,2.0,4.0,87,0.00,,---,0.00,VWS V14.01,2013-02-04 03:00:00,
2013-02-03 22:05:00,23.3,20.0,29.75,NW,314,0.0,4.0,87,0.00,,---,0.00,VWS V14.01,2013-02-04 03:05:00,
2013-02-03 22:10:00,23.3,20.0,29.75,NW,314,0.0,5.0,87,0.00,,---,0.00,VWS V14.01,2013-02-04 03:10:00,
2013-02-03 22:15:00,23.3,20.0,29.75,West,281,2.0,3.0,87,0.00,,---,0.00,VWS V14.01,2013-02-04 03:15:00,
2013-02-03 22:20:00,23.3,20.0,29.75,NW,304,5.0,5.0,87,0.00,,---,0.00,VWS V14.01,2013-02-04 03:20:00,
2013-02-03 22:25:00,23.3,20.0,29.75,North,358,0.0,5.0,87,0.00,,---,0.00,VWS V14.01,2013-02-04 03:25:00,
2013-02-03 22:30:00,23.3,20.0,29.75,NW,315,0.0,3.0,87,0.00,,---,0.00,VWS V14.01,2013-02-04 03:30:00,
2013-02-03 22:35:00,23.3,20.0,29.74,NW,314,2.0,2.0,87,0.00,,---,0.00,VWS V14.01,2013-02-04 03:35:00,
2013-02-03 22:40:00,23.2,19.6,29.74,NW,308,0.0,4.0,86,0.00,,---,0.00,VWS V14.01,2013-02-04 03:40:00,
2013-02-03 22:45:00,23.2,19.6,29.74,NW,304,1.0,3.0,86,0.00,,---,0.00,VWS V14.01,2013-02-04 03:45:00,
2013-02-03 22:50:00,23.2,19.9,29.74,WNW,289,2.0,3.0,87,0.00,,---,0.00,VWS V14.01,2013-02-04 03:50:00,
2013-02-03 22:55:00,23.2,19.9,29.74,West,267,3.0,3.0,87,0.00,,---,0.00,VWS V14.01,2013-02-04 03:55:00,
2013-02-03 23:00:00,23.2,19.9,29.74,North,360,0.0,5.0,87,0.00,,---,0.00,VWS V14.01,2013-02-04 04:00:00,
2013-02-03 23:05:00,23.2,19.9,29.74,North,6,0.0,3.0,87,0.00,,---,0.00,VWS V14.01,2013-02-04 04:05:00,
2013-02-03 23:10:00,23.2,20.2,29.74,NW,321,0.0,2.0,88,0.00,,---,0.00,VWS V14.01,2013-02-04 04:10:00,
2013-02-03 23:15:00,23.2,20.2,29.74,NNW,339,3.0,3.0,88,0.00,,---,0.00,VWS V14.01,2013-02-04 04:15:00,
2013-02-03 23:20:00,23.1,20.1,29.74,NW,325,0.0,3.0,88,0.00,,---,0.00,VWS V14.01,2013-02-04 04:20:00,
2013-02-03 23:25:00,23.1,20.4,29.74,NW,325,0.0,1.0,89,0.00,,---,0.00,VWS V14.01,2013-02-04 04:25:00,
2013-02-03 23:30:00,23.1,20.4,29.74,NW,325,0.0,1.0,89,0.00,,---,0.00,VWS V14.01,2013-02-04 04:30:00,
2013-02-03 23:35:00,23.0,20.2,29.74,NW,325,1.0,2.0,89,0.00,,---,0.00,VWS V14.01,2013-02-04 04:35:00,
2013-02-03 23:40:00,23.0,20.2,29.74,NW,325,1.0,2.0,89,0.00,,---,0.00,VWS V14.01,2013-02-04 04:40:00,
2013-02-03 23:45:00,23.0,20.5,29.74,NW,325,0.0,2.0,90,0.00,,---,0.00,VWS V14.01,2013-02-04 04:45:00,
2013-02-03 23:50:00,23.0,20.5,29.74,West,281,0.0,2.0,90,0.00,,---,0.00,VWS V14.01,2013-02-04 04:50:00,
2013-02-03 23:55:00,23.0,20.5,29.74,West,281,0.0,2.0,90,0.00,,---,0.00,VWS V14.01,2013-02-04 04:55:00,